This demonstration page uses our WeatherBlox Daily Observations layout. Learn more.

Left ArrowRight Arrow

39.92423, -83.80882

Hourly Observations for December 21, 2015

Temp ( °F °C ) Dew Point ( °F °C ) Humidity (%) Winds ( mph kmh ) Pressure ( in mb ) Visibility ( mi km ) Precip ( " mm )
12:56 am 00:56 Clear 44 6.6 25 -3.8 48 48 S 13 20 30.14 1021 10 16.0934 0 0
1:56 am 01:56 Clear 44 6.6 25 -3.8 48 48 S 14 22 30.11 1020 10 16.0934 0 0
2:56 am 02:56 Mostly Clear 44 6.6 26 -3.3 50 50 S 14 22 30.1 1019 10 16.0934 0 0
3:56 am 03:56 Clear 45 7.2 26 -3.3 48 48 S 14 22 30.08 1019 10 16.0934 0 0
4:56 am 04:56 Mostly Cloudy 46 7.7 26 -3.3 46 46 S 15 24 30.05 1018 10 16.0934 0 0.0254
5:56 am 05:56 Cloudy 47 8.3 27 -2.7 46 46 S 10 17 30.05 1018 10 16.0934 0 0
6:56 am 06:56 Mostly Cloudy with Light Rain 45 7.2 33 0.5 63 63 S 17 28 30.06 1018 7 11.26538 0.01 0.254
7:56 am 07:56 Cloudy with Light Rain 42 5.5 36 2.2 80 80 S 14 22 30.04 1017 10 16.0934 0.04 1.016
8:46 am 08:46 Cloudy 43 6 36 2 76 76 S 17 28 30.03 1017 10 16.0934 0 0.0254
8:56 am 08:56 Cloudy 43 6.1 36 2.2 76 76 S 14 22 30.02 1017 10 16.0934 0 0.0254
9:03 am 09:03 Cloudy 45 7 36 2 71 71 S 13 20 30.03 1017 10 16.0934 0 0
9:26 am 09:26 Cloudy with Light Rain 43 6 37 3 81 81 S 12 19 30.06 1018 1.75 2.816345 0.04 1.016
9:37 am 09:37 Cloudy with Light Rain 43 6 37 3 81 81 S 14 22 30.03 1017 2 3.21868 0.08 2.032
9:48 am 09:48 Cloudy with Light Rain 43 6 39 4 87 87 S 15 24 30.03 1017 4 6.43736 0.09 2.286
9:56 am 09:56 Cloudy with Light Rain 43 6.1 39 3.8 85 85 S 14 22 30.02 1017 5 8.0467 0.1 2.54
10:31 am 10:31 Cloudy with Light Rain 45 7 41 5 87 87 S 12 19 30.03 1017 5 8.0467 0.03 0.762
10:56 am 10:56 Cloudy with Light Rain 45 7.2 42 5.5 89 89 S 13 20 30 1016 2.5 4.02335 0.06 1.524
11:06 am 11:06 Cloudy with Light Rain 45 7 43 6 93 93 S 15 24 30.03 1017 7 11.26538 0.01 0.254
11:24 am 11:24 Cloudy with Light Rain 45 7 43 6 93 93 S 13 20 30 1016 2.5 4.02335 0.02 0.508
11:48 am 11:48 Cloudy with Light Rain 45 7 43 6 93 93 S 13 20 30 1016 1.5 2.41401 0.06 1.524
11:56 am 11:56 Cloudy with Light Rain 45 7.2 44 6.6 96 96 S 13 20 29.98 1015 1.75 2.816345 0.07 1.778
12:00 pm 12:00 Cloudy with Light Rain 45 7 45 7 100 100 S 14 22 30 1016 3 4.82802 0 0.0254
12:30 pm 12:30 Cloudy with Light Rain 46 8 45 7 93 93 S 13 20 29.97 1015 2.5 4.02335 0 0.0254
12:38 pm 12:38 Cloudy with Mist and Fog 46 8 45 7 93 93 S 14 22 29.97 1015 3 4.82802 0 0.0254
12:56 pm 12:56 Cloudy 46 7.7 45 7.2 97 97 S 14 22 29.96 1015 8 12.87472 0 0.0254
1:56 pm 13:56 Cloudy with Mist and Fog 48 8.8 48 8.8 100 100 SSW 14 22 29.95 1014 6 9.65604 0 0
2:38 pm 14:38 Cloudy with Mist and Fog 48 9 48 9 100 100 S 14 22 29.97 1015 1.75 2.816345 0 0
2:44 pm 14:44 Cloudy with Mist and Fog 48 9 48 9 100 100 S 17 28 29.97 1015 2 3.21868 0 0
2:56 pm 14:56 Cloudy with Mist and Fog 49 9.4 49 9.4 100 100 SSW 16 26 29.94 1014 3 4.82802 0 0
3:14 pm 15:14 Cloudy with Mist and Fog 50 10 50 10 100 100 SSW 15 24 29.94 1014 1.75 2.816345 0 0
3:32 pm 15:32 Cloudy with Mist and Fog 50 10 50 10 100 100 SSW 13 20 29.94 1014 2.5 4.02335 0 0
3:46 pm 15:46 Cloudy with Mist and Fog 50 10 50 10 100 100 S 13 20 29.94 1014 1.5 2.41401 0 0
3:56 pm 15:56 Cloudy with Mist and Fog 50 10 50 10 100 100 S 13 20 29.94 1014 1.75 2.816345 0.01 0.254
4:38 pm 16:38 Cloudy with Mist and Fog 52 11 52 11 100 100 S 13 20 29.94 1014 2 3.21868 0 0
4:56 pm 16:56 Cloudy with Mist and Fog 51 10.5 51 10.5 100 100 S 10 17 29.93 1014 3 4.82802 0 0
5:18 pm 17:18 Cloudy with Mist and Fog 52 11 52 11 100 100 S 8 13 29.94 1014 4 6.43736 0 0
5:56 pm 17:56 Cloudy with Mist and Fog 51 10.5 51 10.5 100 100 S 8 13 29.94 1014 4 6.43736 0 0
6:56 pm 18:56 Cloudy with Mist and Fog 51 10.5 51 10.5 100 100 S 8 13 29.95 1014 6 9.65604 0.01 0.254
7:56 pm 19:56 Cloudy with Mist and Fog 52 11.1 52 11.1 100 100 S 10 17 29.93 1014 6 9.65604 0 0
8:56 pm 20:56 Cloudy 52 11.1 52 11.1 100 100 S 7 11 29.93 1014 10 16.0934 0 0
9:56 pm 21:56 Cloudy with Mist and Fog 52 11.1 52 11.1 100 100 S 7 11 29.91 1013 2.5 4.02335 0 0
10:04 pm 22:04 Cloudy with Mist and Fog 52 11 52 11 100 100 S 8 13 29.91 1013 4 6.43736 0 0
10:18 pm 22:18 Cloudy with Mist and Fog 54 12 54 12 100 100 S 8 13 29.91 1013 2 3.21868 0.01 0.254
10:56 pm 22:56 Cloudy with Mist and Fog 53 11.6 53 11.6 100 100 S 8 13 29.89 1012 4 6.43736 0.02 0.508
11:24 pm 23:24 Cloudy with Mist and Fog 54 12 54 12 100 100 S 9 15 29.88 1012 2.5 4.02335 0.01 0.254
11:34 pm 23:34 Cloudy 54 12 54 12 100 100 S 8 13 29.88 1012 7 11.26538 0.01 0.254
11:56 pm 23:56 Cloudy 54 12.2 54 12.2 100 100 S 9 15 29.87 1012 10 16.0934 0.02 0.508

Powered by AerisWeather